Flag for Spain

Past Weather in 42°49'05.9"N, 1°38'39.0"W, Spain — Yesterday and Last 2 Weeks

Currently: 45 °F. Sunny. (Weather station: Pamplona / Noain, Spain). See more current weather

Past Weather in 42°49'05.9"N, 1°38'39.0"W — Graph

°F

42°49'05.9"N, 1°38'39.0"W Temperature Yesterday

Maximum temperature yesterday: 64 °F (at 3:00 pm)
Minimum temperature yesterday: 39 °F (at 7:00 am)
Average temperature yesterday: 49 °F

High & Low Weather Summary for the Past Weeks

 TemperatureHumidityPressure
High68 °F (Feb 15, 2:00 pm)100% (Feb 7, 8:00 am)30.60 "Hg (Feb 7, 8:00 am)
Low30 °F (Feb 7, 7:00 am)30% (Feb 18, 3:30 pm)29.09 "Hg (Feb 9, 9:00 pm)
Average48 °F74%30.07 "Hg
* Reported Feb 6 10:00 am — Feb 21 10:30 am, 42°49'05.9"N, 1°38'39.0"W. Weather by CustomWeather, © 2024

Note: Actual official high and low records may vary slightly from our data, if they occured in-between our weather recording intervals... More about our weather records

42°49'05.9"N, 1°38'39.0"W Weather History for the Previous 24 Hours

Scroll right to see more
 ConditionsComfort  
Time TempWeatherWind HumidityBarometerVisibility
10:30 am
Wed, Feb 21
43 °FSunny.No wind71%30.30 "Hg10 mi
10:00 am41 °FSunny.No wind76%30.30 "Hg10 mi
9:30 am37 °FSunny.No wind81%30.30 "Hg10 mi
9:00 am36 °FSunny.No wind93%30.30 "Hg10 mi
8:30 am34 °FSunny.3 mph87%30.30 "Hg10 mi
8:00 am34 °FSunny.1 mph93%30.27 "Hg10 mi
7:30 am34 °FClear.No wind93%30.30 "Hg10 mi
7:00 am34 °FClear.No wind93%30.30 "Hg10 mi
6:30 am36 °FClear.1 mph87%30.30 "Hg10 mi
6:00 am36 °FClear.3 mph87%30.27 "Hg10 mi
5:30 am36 °FClear.No wind87%30.27 "Hg10 mi
5:00 am36 °FClear.1 mph93%30.27 "Hg10 mi
4:30 am36 °FClear.No wind87%30.30 "Hg10 mi
4:00 am36 °FClear.1 mph93%30.30 "Hg5 mi
3:30 am37 °FClear.2 mph87%30.30 "Hg10 mi
3:00 am37 °FClear.2 mph87%30.30 "Hg4 mi
2:30 am37 °FClear.2 mph87%30.33 "Hg6 mi
2:00 am41 °FClear.No wind81%30.33 "Hg6 mi
12:30 am41 °FClear.2 mph81%30.33 "Hg6 mi
12:00 am41 °FClear.2 mph81%30.36 "Hg10 mi
11:30 pm
Tue, Feb 20
43 °FClear.1 mph81%30.36 "Hg10 mi
11:00 pm43 °FClear.1 mph81%30.36 "Hg10 mi
10:30 pm45 °FClear.3 mph76%30.36 "Hg10 mi
10:00 pm46 °FClear.2 mph71%30.36 "Hg10 mi
9:30 pm46 °FClear.1 mph71%30.36 "Hg10 mi
9:00 pm46 °FClear.3 mph71%30.36 "Hg10 mi
8:30 pm48 °FClear.3 mph66%30.36 "Hg10 mi
8:00 pm50 °FClear.1 mph62%30.36 "Hg10 mi
7:30 pm52 °FPassing clouds.5 mph58%30.36 "HgN/A
7:00 pm54 °FClear.2 mph51%30.36 "Hg10 mi
6:30 pm55 °FSunny.2 mph51%30.39 "Hg10 mi
6:00 pm57 °FPassing clouds.7 mph44%30.39 "HgN/A
5:30 pm57 °FSunny.12 mph44%30.36 "Hg10 mi
5:00 pm57 °FSunny.16 mph44%30.36 "Hg10 mi
4:30 pm59 °FSunny.13 mph39%30.36 "Hg10 mi
4:00 pm61 °FSunny.17 mph36%30.36 "Hg10 mi
3:30 pm63 °FSunny.16 mph32%30.36 "Hg10 mi
3:00 pm64 °FPassing clouds.7 mph34%30.39 "HgN/A
2:30 pm63 °FPassing clouds.7 mph42%30.39 "HgN/A
2:00 pm61 °FPassing clouds.6 mph45%30.39 "HgN/A
1:30 pm59 °FPassing clouds.6 mph51%30.42 "HgN/A
1:00 pm55 °FPassing clouds.7 mph55%30.45 "HgN/A
12:30 pm55 °FPassing clouds.5 mph59%30.48 "HgN/A
12:00 pm54 °FPassing clouds.5 mph54%30.48 "HgN/A
11:30 am52 °FPassing clouds.7 mph58%30.48 "HgN/A
11:00 am50 °FPassing clouds.9 mph62%30.51 "HgN/A
Weather by CustomWeather, © 2024

See weather overview